Back to catalog

JILIN-1 GAOFEN 07D 02 XING

AliveScienceSSO
NORAD 69543·PAYLOAD·🇨🇳 China
This satellite name has not been confirmed by official sources yet.

Launched Jun 15, 2026 from Jiuquan Satellite Launch Center

Loading…

Next Passes (next 24 hours)

TLE

FreshSource: Space-Track

Epoch: Sep 13, 2026, 19:13 UTC

1 69543U 26134F   26256.80088875  .00003563  00000-0  22572-3 0  9996
2 69543  97.6928 327.2769 0015816 329.2987  30.7315 15.09521367 13672

Track JILIN-1 GAOFEN 07D 02 XING in real time with AllMySat

Download on the App Store